�������l�o���
Date,Time,MP-1(��Sv/h),MP-2(��Sv/h),MP-3(��Sv/h),MP-4(��Sv/h),MP-5(��Sv/h),MP-6(��Sv/h),MP-7(��Sv/h),MP-8(��Sv/h),����,����(m/s),���J
2018/08/08,00:00,0.809,1.160,0.831,1.483,1.052,0.454,0.808,0.766,�k�k��,10.2,�L
2018/08/08,00:10,0.807,1.160,0.832,1.481,1.053,0.455,0.807,0.768,�k�k��,10.0,�L
2018/08/08,00:20,0.805,1.155,0.826,1.476,1.049,0.455,0.807,0.766,�k�k��,10.3,�L
2018/08/08,00:30,0.805,1.152,0.829,1.473,1.047,0.452,0.807,0.766,�k�k��,9.4,�L
2018/08/08,00:40,0.806,1.157,0.828,1.475,1.049,0.453,0.805,0.766,�k�k��,10.5,��
2018/08/08,00:50,0.809,1.155,0.827,1.478,1.051,0.455,0.810,0.765,�k�k��,9.5,��
2018/08/08,01:00,0.807,1.161,0.827,1.481,1.052,0.454,0.807,0.767,�k�k��,8.3,��
2018/08/08,01:10,0.808,1.161,0.830,1.485,1.054,0.455,0.809,0.767,�k�k��,8.3,��
2018/08/08,01:20,0.812,1.163,0.830,1.487,1.054,0.455,0.808,0.769,�k�k��,8.9,��
2018/08/08,01:30,0.811,1.161,0.832,1.489,1.055,0.455,0.810,0.769,�k�k��,8.8,�L
2018/08/08,01:40,0.808,1.158,0.831,1.490,1.057,0.456,0.809,0.769,�k�k��,8.3,�L
2018/08/08,01:50,0.807,1.159,0.832,1.490,1.054,0.455,0.811,0.769,�k�k��,8.0,�L
2018/08/08,02:00,0.808,1.160,0.832,1.489,1.057,0.456,0.809,0.771,�k�k��,10.5,�L
2018/08/08,02:10,0.809,1.160,0.832,1.488,1.058,0.457,0.810,0.770,�k�k��,8.7,�L
2018/08/08,02:20,0.810,1.163,0.834,1.489,1.055,0.457,0.810,0.769,�k�k��,9.3,�L
2018/08/08,02:30,0.809,1.162,0.831,1.490,1.059,0.456,0.809,0.769,�k�k��,9.3,�L
2018/08/08,02:40,0.809,1.161,0.830,1.494,1.059,0.457,0.811,0.770,�k�k��,8.4,�L
2018/08/08,02:50,0.809,1.163,0.831,1.492,1.058,0.456,0.810,0.769,�k�k��,9.8,�L
2018/08/08,03:00,0.808,1.159,0.830,1.488,1.058,0.456,0.811,0.767,�k�k��,8.6,�L
2018/08/08,03:10,0.808,1.161,0.832,1.488,1.058,0.456,0.810,0.768,�k�k��,9.2,�L
2018/08/08,03:20,0.808,1.159,0.831,1.488,1.057,0.457,0.810,0.769,�k�k��,9.3,�L
2018/08/08,03:30,0.807,1.159,0.830,1.483,1.054,0.456,0.809,0.766,�k�k��,9.5,�L
2018/08/08,03:40,0.809,1.158,0.830,1.485,1.057,0.457,0.809,0.769,�k�k��,9.6,�L
2018/08/08,03:50,0.808,1.160,0.830,1.483,1.058,0.456,0.811,0.769,�k�k��,10.7,�L
2018/08/08,04:00,0.808,1.162,0.831,1.482,1.057,0.456,0.809,0.767,�k�k��,9.5,�L
2018/08/08,04:10,0.807,1.162,0.829,1.484,1.059,0.456,0.809,0.768,�k�k��,9.5,�L
2018/08/08,04:20,0.809,1.160,0.828,1.485,1.056,0.456,0.810,0.769,�k�k��,10.3,�L
2018/08/08,04:30,0.810,1.162,0.831,1.485,1.059,0.457,0.809,0.768,�k�k��,9.9,�L
2018/08/08,04:40,0.808,1.161,0.830,1.484,1.058,0.456,0.809,0.768,�k�k��,10.6,�L
2018/08/08,04:50,0.808,1.161,0.830,1.487,1.057,0.456,0.809,0.770,�k�k��,9.6,�L
2018/08/08,05:00,0.807,1.159,0.828,1.484,1.057,0.457,0.810,0.768,�k�k��,10.3,�L
2018/08/08,05:10,0.808,1.160,0.830,1.487,1.058,0.456,0.810,0.769,�k�k��,10.2,�L
2018/08/08,05:20,0.805,1.160,0.829,1.485,1.059,0.456,0.809,0.769,�k�k��,10.7,�L
2018/08/08,05:30,0.809,1.162,0.829,1.486,1.059,0.455,0.809,0.769,�k�k��,9.8,�L
2018/08/08,05:40,0.803,1.154,0.827,1.481,1.055,0.455,0.807,0.767,�k�k��,9.8,�L
2018/08/08,05:50,0.800,1.143,0.822,1.472,1.048,0.455,0.806,0.766,�k�k��,10.0,�L
2018/08/08,06:00,0.802,1.149,0.824,1.477,1.050,0.456,0.807,0.766,�k�k��,9.6,�L
2018/08/08,06:10,0.804,1.153,0.827,1.477,1.053,0.454,0.807,0.768,�k�k��,10.9,�L
2018/08/08,06:20,0.805,1.154,0.827,1.479,1.053,0.454,0.807,0.767,�k�k��,9.7,�L
2018/08/08,06:30,0.805,1.155,0.828,1.481,1.054,0.455,0.807,0.768,�k�k��,9.4,�L
2018/08/08,06:40,0.807,1.154,0.829,1.483,1.054,0.454,0.809,0.769,�k�k��,9.4,�L
2018/08/08,06:50,0.808,1.158,0.830,1.483,1.056,0.456,0.809,0.768,�k�k��,10.2,�L
2018/08/08,07:00,0.807,1.156,0.831,1.486,1.057,0.454,0.809,0.770,�k�k��,9.9,�L
2018/08/08,07:10,0.808,1.158,0.830,1.485,1.058,0.457,0.809,0.769,�k�k��,9.8,�L
2018/08/08,07:20,0.807,1.158,0.831,1.489,1.057,0.455,0.810,0.769,�k�k��,9.4,�L
2018/08/08,07:30,0.808,1.157,0.829,1.485,1.058,0.456,0.808,0.768,�k�k��,10.5,�L
2018/08/08,07:40,0.806,1.159,0.830,1.484,1.059,0.455,0.809,0.769,�k�k��,10.5,�L
2018/08/08,07:50,0.807,1.159,0.829,1.481,1.057,0.454,0.809,0.768,�k�k��,8.8,�L
2018/08/08,08:00,0.807,1.157,0.829,1.482,1.055,0.455,0.808,0.769,�k�k��,10.6,�L
2018/08/08,08:10,0.808,1.157,0.828,1.481,1.054,0.455,0.809,0.768,�k�k��,9.6,�L
2018/08/08,08:20,0.807,1.153,0.825,1.477,1.054,0.454,0.808,0.769,�k�k��,9.1,�L
2018/08/08,08:30,0.804,1.147,0.823,1.475,1.047,0.454,0.809,0.767,�k�k��,11.1,�L
2018/08/08,08:40,0.802,1.147,0.823,1.469,1.049,0.454,0.806,0.765,�k�k��,10.5,�L
2018/08/08,08:50,0.800,1.145,0.821,1.465,1.048,0.453,0.806,0.765,�k�k��,10.8,�L
2018/08/08,09:00,0.801,1.142,0.823,1.462,1.043,0.452,0.803,0.763,�k�k��,10.2,�L
2018/08/08,09:10,0.801,1.141,0.822,1.463,1.043,0.452,0.803,0.762,�k,9.4,�L
2018/08/08,09:20,0.795,1.132,0.819,1.457,1.035,0.450,0.801,0.761,�k�k��,9.9,�L
2018/08/08,09:30,0.797,1.130,0.817,1.456,1.034,0.450,0.800,0.761,�k,9.0,�L
2018/08/08,09:40,0.794,1.133,0.817,1.453,1.030,0.449,0.799,0.760,�k�k��,9.8,�L
2018/08/08,09:50,0.796,1.133,0.818,1.453,1.027,0.448,0.797,0.760,�k,10.2,�L
2018/08/08,10:00,0.793,1.125,0.814,1.449,1.025,0.450,0.796,0.758,�k�k��,8.2,�L
2018/08/08,10:10,0.787,1.121,0.811,1.441,1.018,0.449,0.795,0.759,�k�k��,9.5,�L
2018/08/08,10:20,0.790,1.123,0.815,1.446,1.020,0.446,0.794,0.759,�k�k��,10.6,�L
2018/08/08,10:30,0.793,1.127,0.817,1.452,1.019,0.449,0.795,0.758,�k,7.9,�L
2018/08/08,10:40,0.794,1.126,0.816,1.449,1.017,0.448,0.794,0.757,�k,10.9,�L
2018/08/08,10:50,0.790,1.124,0.815,1.445,1.015,0.448,0.796,0.758,�k�k��,10.5,�L
2018/08/08,11:00,0.790,1.121,0.814,1.442,1.014,0.446,0.795,0.756,�k�k��,10.7,�L
2018/08/08,11:10,0.785,1.114,0.810,1.440,1.010,0.447,0.794,0.756,�k�k��,10.6,�L
2018/08/08,11:20,0.784,1.115,0.810,1.436,1.005,0.445,0.793,0.755,�k�k��,10.7,�L
2018/08/08,11:30,0.788,1.121,0.813,1.441,1.008,0.446,0.794,0.754,�k,10.5,�L
2018/08/08,11:40,0.790,1.123,0.814,1.442,1.007,0.446,0.794,0.758,�k,8.7,�L
2018/08/08,11:50,0.791,1.122,0.813,1.441,1.006,0.447,0.792,0.756,�k�k��,10.5,�L
2018/08/08,12:00,0.789,1.120,0.811,1.440,1.001,0.447,0.792,0.754,�k�k��,8.8,�L
2018/08/08,12:10,0.788,1.116,0.811,1.432,0.997,0.446,0.789,0.753,�k,7.7,�L
2018/08/08,12:20,0.786,1.112,0.809,1.432,0.996,0.443,0.790,0.752,�k�k��,11.4,�L
2018/08/08,12:30,0.785,1.112,0.808,1.429,0.992,0.446,0.791,0.754,�k�k��,9.1,�L
2018/08/08,12:40,0.788,1.118,0.809,1.434,0.995,0.446,0.793,0.755,�k�k��,8.6,�L
2018/08/08,12:50,0.787,1.117,0.809,1.430,0.993,0.447,0.790,0.755,�k�k��,7.8,�L
2018/08/08,13:00,0.782,1.107,0.804,1.422,0.985,0.441,0.786,0.749,�k�k��,8.4,�L
2018/08/08,13:10,0.779,1.105,0.802,1.425,0.983,0.440,0.789,0.752,�k�k��,10.5,�L
2018/08/08,13:20,0.782,1.110,0.802,1.423,0.984,0.443,0.789,0.752,�k�k��,9.5,�L
2018/08/08,13:30,0.784,1.112,0.801,1.429,0.983,0.444,0.790,0.752,�k�k��,11.3,�L
2018/08/08,13:40,0.791,1.124,0.806,1.437,0.990,0.446,0.792,0.755,�k�k��,9.7,�L
2018/08/08,13:50,0.794,1.127,0.809,1.438,0.989,0.449,0.794,0.756,�k�k��,9.3,�L
2018/08/08,14:00,0.790,1.121,0.806,1.435,0.982,0.446,0.789,0.753,�k�k��,8.5,�L
2018/08/08,14:10,0.786,1.110,0.803,1.422,0.975,0.443,0.786,0.753,�k�k��,8.0,�L
2018/08/08,14:20,0.790,1.115,0.803,1.428,0.977,0.442,0.788,0.755,�k�k��,7.5,�L
2018/08/08,14:30,0.788,1.112,0.800,1.423,0.971,0.440,0.787,0.753,�k,6.0,�L
2018/08/08,14:40,0.789,1.116,0.802,1.430,0.976,0.440,0.790,0.756,�k,5.8,�L
2018/08/08,14:50,0.795,1.129,0.804,1.439,0.982,0.446,0.793,0.757,�k�k��,7.0,�L
2018/08/08,15:00,0.798,1.134,0.808,1.445,0.985,0.447,0.795,0.760,�k�k��,7.4,�L
2018/08/08,15:10,0.799,1.134,0.811,1.448,0.992,0.450,0.797,0.760,�k�k��,9.2,�L
2018/08/08,15:20,0.798,1.136,0.810,1.451,0.992,0.450,0.795,0.763,�k�k��,10.0,�L
2018/08/08,15:30,0.798,1.139,0.810,1.447,0.991,0.451,0.797,0.760,�k�k��,10.8,�L
2018/08/08,15:40,0.793,1.125,0.803,1.435,0.985,0.450,0.793,0.759,�k�k��,10.5,�L
2018/08/08,15:50,0.796,1.132,0.809,1.445,0.991,0.449,0.796,0.758,�k��,9.7,�L
2018/08/08,16:00,0.797,1.136,0.812,1.451,0.993,0.450,0.797,0.761,�k��,10.2,�L
2018/08/08,16:10,0.800,1.138,0.812,1.452,0.995,0.452,0.800,0.761,�k��,11.6,�L
2018/08/08,16:20,0.801,1.142,0.813,1.457,0.998,0.451,0.799,0.761,�k��,10.9,�L
2018/08/08,16:30,0.801,1.145,0.812,1.457,0.998,0.452,0.800,0.761,�k��,9.6,��
2018/08/08,16:40,0.802,1.147,0.814,1.464,1.000,0.452,0.800,0.763,�k��,10.9,��
2018/08/08,16:50,0.804,1.147,0.816,1.465,1.004,0.452,0.801,0.762,�k�k��,10.7,��
2018/08/08,17:00,0.804,1.149,0.815,1.465,1.005,0.451,0.801,0.762,�k��,10.6,��
2018/08/08,17:10,0.806,1.152,0.817,1.466,1.007,0.452,0.801,0.762,�k��,9.2,��
2018/08/08,17:20,0.805,1.152,0.819,1.470,1.007,0.453,0.803,0.763,�k��,10.7,�L
2018/08/08,17:30,0.807,1.152,0.818,1.473,1.010,0.452,0.802,0.763,�k��,9.2,��
2018/08/08,17:40,0.808,1.153,0.820,1.473,1.009,0.454,0.804,0.763,�k�k��,9.4,��
2018/08/08,17:50,0.806,1.154,0.820,1.476,1.012,0.455,0.804,0.764,�k��,9.4,�L
2018/08/08,18:00,0.805,1.153,0.820,1.475,1.014,0.454,0.802,0.764,�k��,10.3,�L
2018/08/08,18:10,0.806,1.155,0.820,1.474,1.012,0.454,0.804,0.764,�k��,10.7,�L
2018/08/08,18:20,0.806,1.153,0.820,1.475,1.014,0.455,0.803,0.764,�k��,10.8,�L
2018/08/08,18:30,0.804,1.154,0.817,1.474,1.016,0.454,0.804,0.763,�k��,12.1,�L
2018/08/08,18:40,0.807,1.155,0.817,1.475,1.015,0.454,0.804,0.765,�k��,12.4,�L
2018/08/08,18:50,0.805,1.152,0.819,1.475,1.014,0.454,0.804,0.764,�k��,11.4,�L
2018/08/08,19:00,0.805,1.153,0.820,1.474,1.014,0.454,0.805,0.765,�k��,11.7,�L
2018/08/08,19:10,0.805,1.153,0.820,1.476,1.017,0.455,0.804,0.764,�k��,10.2,��
2018/08/08,19:20,0.805,1.154,0.820,1.475,1.019,0.455,0.805,0.762,�k��,10.9,��
2018/08/08,19:30,0.807,1.156,0.819,1.475,1.020,0.455,0.804,0.765,�k��,10.7,�L
2018/08/08,19:40,0.805,1.158,0.821,1.480,1.020,0.455,0.807,0.764,�k��,10.9,��
2018/08/08,19:50,0.806,1.158,0.823,1.481,1.018,0.453,0.804,0.764,�k��,11.6,�L
2018/08/08,20:00,0.806,1.158,0.823,1.479,1.022,0.456,0.805,0.766,�k��,10.3,�L
2018/08/08,20:10,0.806,1.155,0.822,1.481,1.021,0.455,0.806,0.766,�k��,12.0,�L
2018/08/08,20:20,0.808,1.157,0.821,1.480,1.019,0.455,0.805,0.763,�k��,11.3,�L
2018/08/08,20:30,0.807,1.154,0.821,1.480,1.021,0.456,0.806,0.764,�k��,10.2,�L
2018/08/08,20:40,0.808,1.154,0.820,1.481,1.023,0.456,0.805,0.764,�k��,10.2,��
2018/08/08,20:50,0.807,1.155,0.821,1.478,1.023,0.455,0.807,0.764,�k��,11.1,�L
2018/08/08,21:00,0.808,1.156,0.822,1.477,1.022,0.457,0.807,0.765,�k��,10.7,��
2018/08/08,21:10,0.806,1.159,0.822,1.480,1.023,0.456,0.806,0.764,�k��,11.7,��
2018/08/08,21:20,0.806,1.155,0.822,1.482,1.023,0.457,0.807,0.764,�k��,10.5,��
2018/08/08,21:30,0.807,1.158,0.822,1.481,1.024,0.457,0.806,0.766,�k��,10.6,�L
2018/08/08,21:40,0.807,1.157,0.821,1.480,1.025,0.458,0.807,0.766,�k��,10.3,�L
2018/08/08,21:50,0.808,1.157,0.824,1.481,1.026,0.457,0.806,0.765,�k��,12.0,�L
2018/08/08,22:00,0.807,1.158,0.824,1.484,1.025,0.457,0.808,0.766,�k��,11.6,��
2018/08/08,22:10,0.807,1.159,0.825,1.483,1.027,0.458,0.808,0.767,�k��,11.0,��
2018/08/08,22:20,0.807,1.161,0.823,1.484,1.027,0.457,0.809,0.766,�k��,10.9,��
2018/08/08,22:30,0.808,1.159,0.825,1.483,1.026,0.457,0.807,0.765,�k��,10.7,��
2018/08/08,22:40,0.810,1.161,0.825,1.484,1.026,0.456,0.810,0.766,�k��,11.4,��
2018/08/08,22:50,0.809,1.164,0.825,1.484,1.030,0.458,0.808,0.767,�k��,10.6,��
2018/08/08,23:00,0.808,1.161,0.826,1.483,1.028,0.459,0.808,0.768,�k��,11.3,��
2018/08/08,23:10,0.807,1.162,0.826,1.481,1.029,0.458,0.809,0.768,�k��,10.2,��
2018/08/08,23:20,0.806,1.160,0.825,1.482,1.031,0.457,0.807,0.766,�k��,11.3,��
2018/08/08,23:30,0.809,1.161,0.826,1.484,1.029,0.458,0.810,0.767,�k��,11.3,��
2018/08/08,23:40,0.807,1.163,0.825,1.483,1.031,0.457,0.809,0.767,�k��,11.3,��
2018/08/08,23:50,0.809,1.162,0.825,1.485,1.030,0.460,0.809,0.767,�k��,10.9,��
